Home   Weather   Taiyuan   Past weeks

Flag for China Past Weather in Taiyuan, Shanxi, China — Yesterday and Last 2 Weeks

Now
57 °F

Fog.


Feels Like: 57 °F
Forecast: 55 / 81 °F
Wind: 1 mph from Northeast

Location: Taiyuan Airport

Current Time: Aug 31, 2016 at 6:55:14 AM

Latest Report: Aug 31, 2016 at 6:30 AM


Visibility: 1 mi

Pressure: 29.77 "Hg (27.10 "Hg at 790m altitude)

Humidity: 94%

Dew Point: 55 °F

Location of TaiyuanLocation

Past Weather in Taiyuan — Graph

°F

Taiyuan Temperature Yesterday

Maximum temperature yesterday: 77 °F (at 2:00 PM)
Minimum temperature yesterday: 63 °F (at 3:30 AM)
Average temperature yesterday: 69 °F

High & Low Weather Summary for the Past Weeks

 TemperatureHumidityPressure
High91 °F (Aug 24, 3:00 PM)94% (Aug 16, 5:30 AM)30.15 "Hg (Aug 16, 5:30 AM)
Low54 °F (Aug 28, 5:00 AM)17% (Aug 28, 5:00 PM)29.62 "Hg (Aug 18, 3:30 PM)
Average73 °F68%29.89 "Hg
* Reported Aug 16 5:00 AM — Aug 31 5:30 AM, Taiyuan, Weather by CustomWeather, © 2016

Note: Actual official high and low records may vary slightly from our data, if they occured in-between our weather recording intervals... More about our weather records

Advertising

Taiyuan Weather History for the Previous 24 Hours

Scroll right to see more
 ConditionsComfort  
Time TempWeatherWind HumidityBarometerVisibility
5:30 AM
Wed, Aug 31
57 °FFog.1 mph94%29.77 "Hg1 mi
5:00 AM57 °FFog.3 mph94%29.77 "Hg2 mi
4:30 AM57 °FFog.1 mph94%29.77 "Hg2 mi
4:00 AM57 °FFog.No wind94%29.77 "Hg2 mi
3:30 AM59 °FFog.1 mph88%29.77 "Hg2 mi
3:00 AM59 °FFog.1 mph88%29.77 "Hg3 mi
2:30 AM59 °FFog.1 mph88%29.77 "Hg3 mi
2:00 AM61 °FFog.1 mph83%29.80 "Hg3 mi
1:30 AM61 °FFog.1 mph83%29.80 "Hg3 mi
1:00 AM61 °FFog.1 mph88%29.80 "Hg3 mi
12:30 AM63 °FClear.3 mph83%29.80 "Hg4 mi
12:00 AM63 °FClear.1 mph83%29.80 "Hg4 mi
11:30 PM
Tue, Aug 30
63 °FClear.No wind83%29.80 "Hg4 mi
11:00 PM64 °FClear.1 mph78%29.83 "Hg4 mi
10:30 PM64 °FClear.3 mph78%29.80 "Hg4 mi
10:00 PM66 °FClear.3 mph73%29.83 "Hg4 mi
9:30 PM66 °FClear.1 mph78%29.83 "Hg4 mi
9:00 PM68 °FClear.3 mph73%29.80 "Hg10 mi
8:30 PM68 °FClear.3 mph73%29.80 "Hg10 mi
8:00 PM68 °FClear.3 mph69%29.80 "Hg10 mi
7:30 PM68 °FClear.3 mph73%29.80 "Hg10 mi
7:00 PM72 °FSunny.1 mph61%29.80 "Hg10 mi
6:30 PM73 °FSunny.1 mph57%29.80 "Hg10 mi
6:00 PM75 °FPassing clouds.3 mph50%29.80 "HgN/A
5:30 PM75 °FPassing clouds.6 mph50%29.80 "HgN/A
5:00 PM75 °FPassing clouds.6 mph50%29.80 "HgN/A
4:30 PM77 °FPassing clouds.6 mph47%29.80 "HgN/A
4:00 PM77 °FPassing clouds.6 mph47%29.80 "HgN/A
3:30 PM77 °FPassing clouds.6 mph47%29.83 "HgN/A
3:00 PM77 °FPassing clouds.8 mph47%29.83 "HgN/A
2:30 PM77 °FSunny.6 mph51%29.83 "Hg10 mi
2:00 PM77 °FPassing clouds.6 mph47%29.86 "HgN/A
1:30 PM75 °FPassing clouds.6 mph50%29.86 "HgN/A
1:00 PM75 °FPassing clouds.6 mph50%29.89 "HgN/A
12:30 PM73 °FPassing clouds.3 mph53%29.89 "HgN/A
12:00 PM72 °FSunny.3 mph53%29.92 "Hg10 mi
11:30 AM70 °FPassing clouds.3 mph57%29.92 "HgN/A
11:00 AM70 °FPassing clouds.3 mph60%29.92 "HgN/A
10:30 AM68 °FPartly sunny.3 mph64%29.95 "HgN/A
10:00 AM68 °FPartly sunny.3 mph69%29.95 "HgN/A
9:30 AM68 °FPartly sunny.1 mph69%29.95 "HgN/A
9:00 AM66 °FScattered clouds.1 mph73%29.95 "HgN/A
8:30 AM66 °FSunny.No wind73%29.92 "Hg10 mi
8:00 AM66 °FSunny.1 mph64%29.92 "Hg10 mi
7:30 AM64 °FSunny.1 mph83%29.92 "Hg10 mi
7:00 AM64 °FSunny.1 mph78%29.92 "Hg10 mi
6:30 AM64 °FSunny.1 mph73%29.95 "Hg10 mi
6:00 AM63 °FSunny.1 mph83%29.95 "Hg10 mi
Weather by CustomWeather, © 2016

See weather overviewHow to use our weather pages